STARLINK-1210, 45207

Orbit data source: Space-Track

STARLINK-1210, 45207 is a payload satellite owned by SpaceX/Seattle (US) in LEO that was launched on Mon, 17 Feb 2020 UTC via an FALCON 9 launch vehicle from the Air Force Eastern Test Range (AFETR). Payload-class satellites include a variety of spacecraft equipped with specific instruments for various scientific and technological missions. These include communications satellites like Starlink; space stations such as the ISS; scientific satellites like the Hubble; Earth observation satellites from companies like Planet Labs, Umbra, and HawkEye 360; GPS; miniature CubeSats for education and research; and military/defense satellites.

Loading next visibility...
Identifier
45207, 2020-012AF
Orbit
LEO
Country
Flag of USUS
Related business
Manufacturer
SpaceX/Seattle
Mission
Partially operational Commercial Communications
Bus & Motor
STARLINK, Unknown motor
Mass
260 kg wet, ~248 kg dry
Launch date (UTC)
2020-02-17 (6 years ago)
Launch vehicle
FALCON 9
Launch site
Air Force Eastern Test Range (AFETR)
Object type
Payload
Rocket body
Debris
Shape & HBR
Box + 1 Pan, 10.1 m
Radar Cross Section
13.562 m², Large (>1 m²)

Expand to show TLE details & history
Last TLE update: 18 hours ago

TLE from 18 hours ago
0 STARLINK-1210
1 45207U 20012AF  25291.13279907  .00211101  00000-0  32282-2 0  9995
2 45207  53.0245 251.0448 0012794  11.6109 348.5193 15.53073860314418
Epoch: 2025-10-18T03:11Z
TLE epoch observation values (Epoch: 2025-10-18T03:11:13.839Z)
Latitude
Longitude
176.36894°
Altitude
400.144 km
Speed
7.676 km/s
True Right ascension
16h 44m 10s
True Declination
0° 00' 00"
Sunlit
Object was in daylight at epoch
Visualization orbit readout
Latitude
Unknown
Longitude
Unknown
Altitude
Unknown
Speed
Unknown
Apparent Right ascension
Unknown
Apparent Declination
Unknown
Sunlit
N/A
Visualization observer readout
Local Sidereal Time
15:41:06
Azimuth
Unknown
Elevation
Unknown
Doppler factor
Unknown
Orbital elements
Apogee altitude
416.721 km
Perigee altitude
399.356 km
Semi-major axis
6,786.175 km
Eccentricity
0.00128
Inclination
53.0245°
RAAN
251.0448°
Arg. of periapsis
11.6109°
True anomaly
348.49007°
Mean anomaly
348.5193°
Eccentric anomaly
348.50469°
Mean motion
3.88245 °/min
Orbital period
92.73 mins
BSTAR
0.0032282
Loading maneuver chart data...
Computing Atmospheric mass density...

Documentation

Showing up to 5 results
|